Location: Alto Pass Reservoir
(37.5801°N, 89.3084°W)
Time: 13:54:29
(UTC+00:00)

NOAA 12 - Pass Details

Date: 08 December 2021
Orbit: 795 x 816 km, 98.5° (Epoch: 19 January)

Event Time Altitude Azimuth Distance (km) Brightness Sun altitude
Rises 12:26:50 0° 6° (N) 3,318 7.1 -6.7°
Reaches altitude 10° 12:29:15 10° 1° (N) 2,381 6.3 -6.3°
Maximum altitude 12:34:15 47° 289° (WNW) 1,050 4.3 -5.4°
Drops below altitude 10° 12:39:13 10° 216° (SW) 2,358 6.4 -4.5°
Sets 12:41:36 0° 211° (SSW) 3,282 7.2 -4.0°
